User: anonymous
Location: Fort Wayne
(41.1310°N, 85.1290°W)
Time: 23:16:11
(UTC-04:00)
Language:

BREEZE-M DEB (TANK) - Orbit

View from above orbital plane
View from above orbital plane
View from above satellite
View from above satellite

Ground track
Ground track

The orbit data is extracted from the following two-line orbital elements,

1 27821U 03024B   14238.61218479  .00004993  00000-0  51568-3 0  4656
2 27821 049.5642 103.8802 5015857 337.6608 006.6054 05.62848342221949
Epoch (UTC): 26 August 2014 14:41:32
Eccentricity: 0.5015857
inclination: 49.5642°
perigee height: 275 km
apogee height: 13667 km
right ascension of ascending node: 103.8802°
argument of perigee: 337.6608°
revolutions per day: 5.62848342
mean anomaly at epoch: 6.6054°
orbit number at epoch: 22194

The dashed part of the orbit path shows where the satellite is in the earth's shadow,  

DLR